Вернуться в каталог

SL-3 R/B

АктивенPO
NORAD 7364·ROCKET BODY·🇷🇺 Russia

Запущен Jul 9, 1974 с Plesetsk Cosmodrome

Loading…

Ближайшие Пролёты (ближайшие 24 часа)

TLE

СвежийSource: Space-Track

Эпоха: Sep 14, 2026, 14:01 UTC

1 07364U 74052B   26257.58418714  .00000238  00000-0  13500-3 0  9993
2 07364  81.2303 118.0596 0049688  15.5403 344.7277 14.06470534675637

Отслеживайте SL-3 R/B в реальном времени с AllMySat

Download on the App Store